User: anonymous
Location: Oshawa
(43.9000°N, 78.8670°W)
Time: 09:24:49
(UTC-04:00)
Language:

Cosmos 2333 Rocket - Orbit

View from above orbital plane
View from above orbital plane
View from above satellite
View from above satellite

Ground track
Ground track

The orbit data is extracted from the following two-line orbital elements,

1 24298U 96051B   14202.84742140 -.00000194  00000-0 -78875-4 0  5019
2 24298 070.8669 138.9558 0017407 314.0054 107.4502 14.12473095921960
Epoch (UTC): 21 July 2014 20:20:17
Eccentricity: 0.0017407
inclination: 70.8669°
perigee height: 838 km
apogee height: 863 km
right ascension of ascending node: 138.9558°
argument of perigee: 314.0054°
revolutions per day: 14.12473095
mean anomaly at epoch: 107.4502°
orbit number at epoch: 92196

The dashed part of the orbit path shows where the satellite is in the earth's shadow,  

DLR